Regional Weather Roundup
Issued by NWS

Home | Current Version | Previous Version | Text Only | Print | Product List | Glossary On
Versions: 1 2 3 4 5 6 7 8 9 10 11 12 13 14 15 16 17 18 19 20 21 22 23 24 25 26 27 28 29 30 31 32 33 34 35 36 37 38 39 40 41 42 43 44 45 46 47 48 49 50
000
ASUS44 KJAN 231520
RWRMS

MISSISSIPPI HOURLY WEATHER ROUNDUP
NATIONAL WEATHER SERVICE JACKSON MS
1000 AM CDT SAT JUL 23 2016

NOTE: "FAIR: INDICATES FEW OR NO CLOUDS BELOW 12,000 FEET WITH NO
SIGNIFICANT WEATHER AND/OR OBSTRUCTIONS TO VISIBILITY.

MSZ001>002-007>008-010>013-018>021-025>028-034>036-231600-
NORTHWEST MISSISSIPPI

CITY           SKY/WX    TMP DP  RH WIND       PRES   REMARKS
CLEVELAND      FAIR      85  82  88 SW5       29.99S HX 102
GREENWOOD      MOSUNNY   85  74  69 SW5       30.00S HX  92
GREENVILLE     SUNNY     88  74  63 CALM      29.99F HX  96
OXFORD         FAIR      75  73  94 N9        30.07R
WINONA         FAIR      81  74  80 CALM      30.01S THUNDER
$$

MSZ003>006-009-014>017-022>024-029>033-037>039-231600-
NORTHEAST MISSISSIPPI

CITY           SKY/WX    TMP DP  RH WIND       PRES   REMARKS
ABERDEEN       FAIR      86  68  54 S5        30.02S
COLUMBUS AFB   MOSUNNY   85  79  82 S5        30.01S HX  99
GOLDN TRIANGLE MOSUNNY   84  73  70 S5        30.01S HX  91
TUPELO         LGT RAIN  80  74  81 SW3       30.00F
$$

MSZ040-058-231600-
CENTRAL MISSISSIPPI

CITY           SKY/WX    TMP DP  RH WIND       PRES   REMARKS
JACKSON INTL   SUNNY     83  74  74 CALM      30.01F
JACKSON HAWKNS SUNNY     83  75  77 CALM      30.02F HX  90
MADISON        FAIR      84  73  70 S3        30.01S HX  91
MERIDIAN KEY   SUNNY     85  73  67 CALM      30.01F HX  91
MERIDIAN NAS   MOSUNNY   85  71  63 VRB3      30.02F HX  90
VICKSBURG VKS  SUNNY     86  75  70 VRB3      30.01F HX  95
$$

MSZ059>079-231600-
SOUTH MISSISSIPPI

CITY           SKY/WX    TMP DP  RH WIND       PRES   REMARKS
COLUMBIA       FAIR      79  75  89 CALM      30.06S
HATTIESBURG    SUNNY     83  74  74 CALM      30.02F
MCCOMB         CLOUDY    83  76  79 VRB3      30.03S HX  91
NATCHEZ        MOSUNNY   84  77  79 W9        30.03S HX  94
PINE BELT      SUNNY     82  73  74 CALM      30.04S
$$

MSZ080>082-231600-
COASTAL MISSISSIPPI

CITY           SKY/WX    TMP DP  RH WIND       PRES   REMARKS
BAY ST LOUIS   MOSUNNY   84  72  65 CALM      30.02R
BILOXI         CLOUDY    85  77  77 VRB1      30.01S HX  94
PASCAGOULA     CLOUDY    85  78  80 CALM      30.02S HX  96
GULFPORT       CLOUDY    86  76  71 CALM      30.01S HX  96
$$

LAZ007>009-015>016-023>026-231600-
NORTHEAST LOUISIANA

CITY           SKY/WX    TMP DP  RH WIND       PRES   REMARKS
BASTROP        FAIR      86  78  75 CALM      30.00F HX  99
TALLULAH/VBURG MOSUNNY   85  77  77 VRB3      30.01F HX  95
VIDALIA        PTSUNNY   82  78  88 SW6       30.05S HX  91
$$



USA.gov is the U.S. government's official web portal to all federal, state and local government web resources and services.